GEXCL EGHI-EGKK

Flight info

Callsign GEXCL
Flight time 0h 19m
Altitude 7000
Route GWC DCT HOLLY/N0270F060 DCT WILLO
Aircraft C25C/M-SDE2E3FGHRWXY/LB1

Departure

Time 2026-05-06 20:02
Airport Southampton Airport (EGHI)

Arrival

Time 2026-05-06 20:21
Airport London Gatwick Airport (EGKK)
Time Latitude Longitude Altitude Speed Heading
2026-05-06 19:53 50.95279 -1.35874 43 ft 0 kts 288°
2026-05-06 19:56 50.95274 -1.35848 43 ft 4 kts 288°
2026-05-06 19:56 50.95266 -1.35809 35 ft 4 kts 263°
2026-05-06 19:56 50.95281 -1.35796 55 ft 4 kts 200°
2026-05-06 19:57 50.95288 -1.35791 52 ft 0 kts 200°
2026-05-06 19:58 50.95280 -1.35796 55 ft 7 kts 199°
2026-05-06 19:59 50.95234 -1.35822 51 ft 8 kts 199°
2026-05-06 19:59 50.95172 -1.35855 41 ft 11 kts 199°
2026-05-06 19:59 50.95102 -1.35896 42 ft 11 kts 201°
2026-05-06 19:59 50.95000 -1.35952 42 ft 20 kts 200°
2026-05-06 20:00 50.94866 -1.36026 41 ft 20 kts 199°
2026-05-06 20:00 50.94713 -1.36111 35 ft 26 kts 199°
2026-05-06 20:00 50.94615 -1.36123 33 ft 12 kts 157°
2026-05-06 20:00 50.94577 -1.36033 33 ft 10 kts 109°
2026-05-06 20:01 50.94572 -1.35943 33 ft 5 kts 45°
2026-05-06 20:01 50.94590 -1.35929 33 ft 5 kts 18°
2026-05-06 20:01 50.94741 -1.35840 38 ft 65 kts 19°
2026-05-06 20:01 50.95476 -1.35475 325 ft 139 kts 15°
2026-05-06 20:02 50.96504 -1.35040 1440 ft 166 kts 19°
2026-05-06 20:02 50.97332 -1.33672 2677 ft 194 kts 70°
2026-05-06 20:02 50.97383 -1.31422 3864 ft 225 kts 99°
2026-05-06 20:02 50.96899 -1.28877 5435 ft 248 kts 107°
2026-05-06 20:03 50.96304 -1.26144 6749 ft 271 kts 108°
2026-05-06 20:03 50.95716 -1.23449 7053 ft 262 kts 108°
2026-05-06 20:03 50.95125 -1.20666 7056 ft 270 kts 107°
2026-05-06 20:03 50.94531 -1.17797 7049 ft 277 kts 107°
2026-05-06 20:04 50.93910 -1.14872 7048 ft 282 kts 108°
2026-05-06 20:04 50.93277 -1.11924 7052 ft 284 kts 107°
2026-05-06 20:04 50.92650 -1.08955 7036 ft 284 kts 107°
2026-05-06 20:04 50.92031 -1.05999 7040 ft 281 kts 108°
2026-05-06 20:05 50.91401 -1.03084 7035 ft 278 kts 108°
2026-05-06 20:05 50.90785 -1.00184 7037 ft 277 kts 108°
2026-05-06 20:05 50.90168 -0.97304 7034 ft 275 kts 107°
2026-05-06 20:05 50.89557 -0.94433 7034 ft 275 kts 108°
2026-05-06 20:06 50.88942 -0.91576 7030 ft 274 kts 108°
2026-05-06 20:06 50.88334 -0.88728 7028 ft 274 kts 108°
2026-05-06 20:06 50.87721 -0.85869 7027 ft 274 kts 108°
2026-05-06 20:06 50.87107 -0.83026 7026 ft 273 kts 108°
2026-05-06 20:07 50.86494 -0.80178 7021 ft 273 kts 108°
2026-05-06 20:07 50.85884 -0.77337 7019 ft 272 kts 107°
2026-05-06 20:07 50.85562 -0.74423 7009 ft 269 kts 85°
2026-05-06 20:07 50.85742 -0.71479 7010 ft 269 kts 84°
2026-05-06 20:08 50.85872 -0.68529 7009 ft 268 kts 84°
2026-05-06 20:08 50.86028 -0.65589 7006 ft 268 kts 84°
2026-05-06 20:08 50.86172 -0.62657 7009 ft 268 kts 84°
2026-05-06 20:08 50.86317 -0.59723 7013 ft 267 kts 84°
2026-05-06 20:09 50.86459 -0.56787 7018 ft 268 kts 84°
2026-05-06 20:09 50.86603 -0.53849 7016 ft 268 kts 84°
2026-05-06 20:09 50.86745 -0.50912 7017 ft 268 kts 84°
2026-05-06 20:09 50.86887 -0.47975 7024 ft 267 kts 84°
2026-05-06 20:10 50.87027 -0.45041 7019 ft 267 kts 84°
2026-05-06 20:10 50.87164 -0.42113 7020 ft 266 kts 84°
2026-05-06 20:10 50.87306 -0.39188 7019 ft 266 kts 84°
2026-05-06 20:10 50.87441 -0.36261 7016 ft 267 kts 84°
2026-05-06 20:11 50.87581 -0.33337 7016 ft 266 kts 85°
2026-05-06 20:11 50.87799 -0.30438 7011 ft 265 kts 71°
2026-05-06 20:11 50.88870 -0.28187 7011 ft 256 kts 33°
2026-05-06 20:11 50.90498 -0.27359 7014 ft 248 kts
2026-05-06 20:12 50.92197 -0.27146 7004 ft 242 kts
2026-05-06 20:12 50.93873 -0.27035 7007 ft 241 kts
2026-05-06 20:12 50.95542 -0.26944 6967 ft 241 kts
2026-05-06 20:12 50.97190 -0.26862 6870 ft 235 kts
2026-05-06 20:13 50.98822 -0.26781 6557 ft 235 kts
2026-05-06 20:13 51.00410 -0.27179 6250 ft 234 kts 332°
2026-05-06 20:13 51.01466 -0.29060 5893 ft 232 kts 295°
2026-05-06 20:13 51.01990 -0.31463 5382 ft 229 kts 288°
2026-05-06 20:14 51.02430 -0.33899 4811 ft 228 kts 286°
2026-05-06 20:14 51.02842 -0.36328 4261 ft 227 kts 286°
2026-05-06 20:14 51.03243 -0.38752 3744 ft 226 kts 286°
2026-05-06 20:14 51.03640 -0.41188 3470 ft 224 kts 285°
2026-05-06 20:15 51.04019 -0.43592 3067 ft 222 kts 286°
2026-05-06 20:15 51.04383 -0.45885 2988 ft 205 kts 286°
2026-05-06 20:15 51.04802 -0.47926 2973 ft 186 kts 306°
2026-05-06 20:15 51.05873 -0.48926 2988 ft 187 kts 352°
2026-05-06 20:16 51.06726 -0.48719 2992 ft 192 kts 23°
2026-05-06 20:16 51.07707 -0.47297 2995 ft 191 kts 49°
2026-05-06 20:16 51.08518 -0.45661 2918 ft 188 kts 50°
2026-05-06 20:16 51.09310 -0.44019 2674 ft 187 kts 51°
2026-05-06 20:17 51.10094 -0.42394 2561 ft 184 kts 51°
2026-05-06 20:17 51.10873 -0.40776 2525 ft 184 kts 51°
2026-05-06 20:17 51.11643 -0.39175 2500 ft 180 kts 51°
2026-05-06 20:17 51.12322 -0.37524 2399 ft 178 kts 69°
2026-05-06 20:18 51.12514 -0.35782 2185 ft 149 kts 75°
2026-05-06 20:18 51.12721 -0.34226 1996 ft 144 kts 75°
2026-05-06 20:18 51.12932 -0.32651 1791 ft 145 kts 74°
2026-05-06 20:18 51.13153 -0.31077 1589 ft 145 kts 75°
2026-05-06 20:19 51.13355 -0.29543 1403 ft 139 kts 74°
2026-05-06 20:19 51.13571 -0.28076 1201 ft 134 kts 75°
2026-05-06 20:19 51.13757 -0.26665 1008 ft 129 kts 75°
2026-05-06 20:19 51.13949 -0.25289 829 ft 124 kts 76°
2026-05-06 20:20 51.14125 -0.24017 652 ft 113 kts 76°
2026-05-06 20:20 51.14287 -0.22811 498 ft 111 kts 78°
2026-05-06 20:20 51.14450 -0.21611 342 ft 109 kts 77°
2026-05-06 20:20 51.14610 -0.20473 216 ft 103 kts 78°
2026-05-06 20:21 51.14734 -0.19562 202 ft 56 kts 76°
2026-05-06 20:21 51.14798 -0.19119 199 ft 38 kts 73°
2026-05-06 20:21 51.14860 -0.18707 203 ft 30 kts 71°
2026-05-06 20:21 51.14956 -0.18471 205 ft 19 kts 53°
2026-05-06 20:22 51.15052 -0.18280 197 ft 25 kts 53°
2026-05-06 20:22 51.15125 -0.18179 198 ft 0 kts
2026-05-06 20:23 51.15133 -0.18181 204 ft 7 kts 349°
2026-05-06 20:23 51.15214 -0.18210 201 ft 12 kts 347°
2026-05-06 20:23 51.15298 -0.18240 198 ft 13 kts 346°
2026-05-06 20:23 51.15381 -0.18273 198 ft 10 kts 329°
2026-05-06 20:24 51.15385 -0.18329 198 ft 5 kts 260°
2026-05-06 20:24 51.15377 -0.18375 198 ft 3 kts 249°
2026-05-06 20:24 51.15373 -0.18400 203 ft 0 kts 258°